Regional Weather Roundup
Issued by NWS

Home | Current Version | Previous Version | Graphics & Text | Print | Product List | Glossary On
Versions: 1 2 3 4 5 6 7 8 9 10 11 12 13 14 15 16 17 18 19 20 21 22 23 24 25 26 27 28 29 30 31 32 33 34 35 36 37 38 39 40 41 42 43 44 45 46 47 48 49 50
000
ASUS45 KPSR 042110
RWRAZ

ARIZONA HOURLY REGIONAL WEATHER ROUNDUP
NATIONAL WEATHER SERVICE PHOENIX AZ
200 PM MST WED MAY 04 2016

NOTE: FAIR INDICATES FEW OR NO CLOUDS BELOW 12,000 FEET WITH NO
SIGNIFICANT WEATHER AND/OR OBSTRUCTIONS TO VISIBILITY.

AZZ001>003-036-042200-
NORTHWEST ARIZONA

CITY           SKY/WX    TMP DP  RH WIND       PRES   REMARKS
BULLHEAD CITY  SUNNY     97  23   7 S16G30    29.80F
KINGMAN        SUNNY     88  24  10 S17G23    29.95F
$$

AZZ004>008-015-016-018-042200-
NORTH CENTRAL ARIZONA

CITY           SKY/WX    TMP DP  RH WIND       PRES   REMARKS
GRAND CANYON   SUNNY     75  20  12 S10G22    30.18F
WILLIAMS       SUNNY     73  25  16 SE12G22   30.26F
PRESCOTT       SUNNY     81  24  12 SE18G35   30.08F
FLAGSTAFF      SUNNY     71  21  15 S17G23    30.22F
PAYSON         SUNNY     81  23  12 VRB7G23   30.14F
PAGE           SUNNY     84  23  10 S13G18    30.06F
$$

AZZ009>014-017-042200-
NORTHEAST ARIZONA

CITY           SKY/WX    TMP DP  RH WIND       PRES   REMARKS
WINSLOW        SUNNY     83  28  13 SE13G20   30.10F
SAINT JOHNS    MOSUNNY   78  23  13 VRB3      30.14F
WINDOW ROCK    SUNNY     73  27  18 S8        30.26F
SHOW LOW       SUNNY     73  21  14 SW14G23   30.22F
$$

AZZ023-042200-
GREATER PHOENIX AREA

CITY           SKY/WX    TMP DP  RH WIND       PRES   REMARKS
PHOENIX        MOSUNNY  101  24   6 SW12G21   29.80F
BUCKEYE        SUNNY     99  30   9 SE12      29.81F
GLENDALE       SUNNY     99  27   8 SE13G21   29.82F
LUKE AFB       SUNNY    100  23   6 SE3G23    29.80F
DEER VALLEY    SUNNY     98  27   8 SE16G25   29.83F
SCOTTSDALE     SUNNY     98  21   6 S13G18    29.85F
MESA-FALCON    SUNNY    N/A N/A N/A SE12      29.87R
MESA-GATEWAY   SUNNY     99  25   7 SE12G17   29.84F
CHANDLER       SUNNY    100  23   6 S14       29.82F
$$

AZZ027-028-042200-
SOUTHWEST MARICOPA COUNTY AND PINAL COUNTY

CITY           SKY/WX    TMP DP  RH WIND       PRES   REMARKS
CASA GRANDE    SUNNY    100  34  10 S15G22    29.84F
GILA BEND      SUNNY    101  19   5 S20       29.77F
$$

AZZ503-504-507>509-042200-
SOUTHEAST ARIZONA

CITY           SKY/WX    TMP DP  RH WIND       PRES   REMARKS
TUCSON         SUNNY     96  18   6 SW10      29.91F
DAVIS-MONTHAN  SUNNY     96  23   7 S12G26    29.90F
RYAN FIELD     SUNNY     97  21   6 E8G16     29.90
NOGALES        SUNNY     91  23   8 VRB5G16   29.99F
SIERRA VISTA   SUNNY     88  25  10 E16G23    30.07F
DOUGLAS        SUNNY     90  26  10 S18G26    30.04F
SAFFORD        SUNNY     92  26   9 SE15G29   30.01F
$$

AZZ020-021-025-026-031-042200-
SOUTHWEST ARIZONA

CITY           SKY/WX    TMP DP  RH WIND       PRES   REMARKS
YUMA           MOSUNNY   98  33  10 S12       29.77F
$$

CAZ031-033-041-043-047-048-061-042200-
SOUTHERN CALIFORNIA

CITY           SKY/WX    TMP DP  RH WIND       PRES   REMARKS
DOWNTOWN L.A.  MOSUNNY   67  54  63 W8        29.93R
L.A. AIRPORT   PTSUNNY   64  53  67 W16       29.94F
SAN DIEGO      MOSUNNY   65  53  65 SW9       29.95F
BURBANK        MOSUNNY   70  54  56 S12       29.91F
ONTARIO        MOSUNNY   78  51  38 W12       29.89F
RIVERSIDE      PTSUNNY   78  52  40 VRB7      29.88F
PALM SPRINGS   SUNNY     97  34  11 E15G23    29.78F
EL CENTRO NAS  MOSUNNY   96  34  11 MISG      29.77F
IMPERIAL       SUNNY     98  35  11 SE12      29.75F
BLYTHE         SUNNY     98  32  10 CALM      29.76F
NEEDLES        SUNNY    100  25   7 SW17G28   29.79F
$$

NVZ020-UTZ003-042200-
SOUTHERN NEVADA-UTAH

CITY           SKY/WX    TMP DP  RH WIND       PRES   REMARKS
LAS VEGAS      MOSUNNY   90  31  12 SE9       29.84F
SALT LAKE CITY PTSUNNY   80  27  14 S17G24    30.04F
$$

NMZ009-TXZ055-042200-
NEW MEXICO-WEST TEXAS

CITY           SKY/WX    TMP DP  RH WIND       PRES   REMARKS
ALBUQUERQUE    MOSUNNY   75  23  14 CALM      30.23F
EL PASO        MOSUNNY   83  24  11 S9        30.13F
$$


........................KEY........................
SKY/WX - SKY CONDITION/WEATHER
TMP    - TEMPERATURE IN FAHRENHEIT
DP     - DEW POINT IN FAHRENHEIT
RH     - RELATIVE HUMIDITY IN PERCENT
WIND   - DIRECTION AND SPEED IN MILES PER HOUR (MPH)
VRB    - VARIABLE WIND DIRECTION
PRES   - MEAN SEA LEVEL PRESSURE IN INCHES OF MERCURY
         F - FALLING PRESSURE   R - RISING PRESSURE
         S - STEADY PRESSURE
VSB    - VISIBILITY IN MILES
HX     - HEAT INDEX IN FAHRENHEIT
WCI    - WIND CHILL INDEX IN FAHRENHEIT
TC     - TEMPERATURE IN CELSIUS WHICH IS ALSO KNOWN AS
         TEMPERATURE IN CENTIGRADE
AFB    - AIR FORCE BASE
         LUKE AFB IS LUKE AIR FORCE BASE
         DAVIS-MONTHAN IS DAVIS-MONTHAN AIR FORCE BASE
NAS    - NAVAL AIR STATION
         EL CENTRO NAS IS EL CENTRO NAVAL AIR STATION
N/A    - NOT AVAILABLE




USA.gov is the U.S. government's official web portal to all federal, state and local government web resources and services.